Time,TemperatureF,DewpointF,PressureIn,WindDirection,WindDirectionDegrees,WindSpeedMPH,WindSpeedGustMPH,Humidity,HourlyPrecipIn,Conditions,Clouds,dailyrainin,SolarRadiationWatts/m^2,SoftwareType,DateUTC
2013-01-23 00:02:00,22.0,15.0,-100.00,NNE,16,0.0,0.0,74,0.00,,,0.00,0.000000,,2013-01-23 07:02:00,
2013-01-23 00:33:00,19.0,13.0,-100.00,North,350,0.0,0.0,77,0.00,,,0.00,0.000000,,2013-01-23 07:33:00,
2013-01-23 00:43:00,19.0,13.0,-100.00,North,350,0.0,0.0,77,0.00,,,0.00,0.000000,,2013-01-23 07:43:00,
2013-01-23 00:53:00,19.0,13.0,-100.00,North,350,0.0,0.0,77,0.00,,,0.00,0.000000,,2013-01-23 07:53:00,
2013-01-23 01:02:00,19.0,13.0,-100.00,North,350,0.0,0.0,77,0.00,,,0.00,0.000000,,2013-01-23 08:02:00,
2013-01-23 01:33:00,18.0,13.0,-100.00,WNW,301,0.0,0.0,79,0.00,,,0.00,0.000000,,2013-01-23 08:33:00,
2013-01-23 01:43:00,18.0,13.0,-100.00,WNW,301,0.0,0.0,79,0.00,,,0.00,0.000000,,2013-01-23 08:43:00,
2013-01-23 01:53:00,18.0,13.0,-100.00,WNW,301,0.0,0.0,79,0.00,,,0.00,0.000000,,2013-01-23 08:53:00,
2013-01-23 02:02:00,18.0,13.0,-100.00,WNW,301,0.0,0.0,79,0.00,,,0.00,0.000000,,2013-01-23 09:02:00,
2013-01-23 02:33:00,17.0,12.0,-100.00,North,358,0.0,0.0,81,0.00,,,0.00,0.000000,,2013-01-23 09:33:00,
2013-01-23 02:43:00,17.0,12.0,-100.00,North,358,0.0,0.0,81,0.00,,,0.00,0.000000,,2013-01-23 09:43:00,
2013-01-23 02:53:00,17.0,12.0,-100.00,North,358,0.0,0.0,81,0.00,,,0.00,0.000000,,2013-01-23 09:53:00,
2013-01-23 03:02:00,17.0,12.0,-100.00,North,358,0.0,0.0,81,0.00,,,0.00,0.000000,,2013-01-23 10:02:00,
2013-01-23 03:33:00,17.0,12.0,-100.00,NNE,24,0.0,0.0,81,0.00,,,0.00,0.000000,,2013-01-23 10:33:00,
2013-01-23 03:43:00,17.0,12.0,-100.00,NNE,24,0.0,0.0,81,0.00,,,0.00,0.000000,,2013-01-23 10:43:00,
2013-01-23 03:53:00,17.0,12.0,-100.00,NNE,24,0.0,0.0,81,0.00,,,0.00,0.000000,,2013-01-23 10:53:00,
2013-01-23 04:02:00,17.0,12.0,-100.00,NNE,24,0.0,0.0,81,0.00,,,0.00,0.000000,,2013-01-23 11:02:00,
2013-01-23 04:34:00,16.0,11.0,-100.00,NNE,14,0.0,0.0,80,0.00,,,0.00,0.000000,,2013-01-23 11:34:00,
2013-01-23 04:43:00,16.0,11.0,-100.00,NNE,14,0.0,0.0,80,0.00,,,0.00,0.000000,,2013-01-23 11:43:00,
2013-01-23 04:53:00,16.0,11.0,-100.00,NNE,14,0.0,0.0,80,0.00,,,0.00,0.000000,,2013-01-23 11:53:00,
2013-01-23 05:02:00,16.0,11.0,-100.00,NNE,14,0.0,0.0,80,0.00,,,0.00,0.000000,,2013-01-23 12:02:00,
2013-01-23 05:33:00,17.0,12.0,-100.00,NNE,13,0.0,0.0,79,0.00,,,0.00,0.000000,,2013-01-23 12:33:00,
2013-01-23 05:43:00,17.0,12.0,-100.00,NNE,13,0.0,0.0,79,0.00,,,0.00,0.000000,,2013-01-23 12:43:00,
2013-01-23 05:53:00,17.0,12.0,-100.00,NNE,13,0.0,0.0,79,0.00,,,0.00,0.000000,,2013-01-23 12:53:00,
2013-01-23 06:03:00,17.0,12.0,-100.00,NNE,13,0.0,0.0,79,0.00,,,0.00,0.000000,,2013-01-23 13:03:00,
2013-01-23 06:33:00,17.0,12.0,-100.00,NNE,18,0.0,0.0,81,0.00,,,0.00,0.000000,,2013-01-23 13:33:00,
2013-01-23 06:43:00,17.0,12.0,-100.00,NNE,18,0.0,0.0,81,0.00,,,0.00,0.000000,,2013-01-23 13:43:00,
2013-01-23 06:53:00,17.0,12.0,-100.00,NNE,18,0.0,0.0,81,0.00,,,0.00,0.000000,,2013-01-23 13:53:00,
2013-01-23 07:02:00,17.0,12.0,-100.00,NNE,18,0.0,0.0,81,0.00,,,0.00,0.000000,,2013-01-23 14:02:00,
2013-01-23 07:33:00,15.0,10.0,-100.00,North,10,0.0,0.0,79,0.00,,,0.00,0.000000,,2013-01-23 14:33:00,
2013-01-23 07:43:00,15.0,10.0,-100.00,North,10,0.0,0.0,79,0.00,,,0.00,0.000000,,2013-01-23 14:43:00,
2013-01-23 07:53:00,15.0,10.0,-100.00,North,10,0.0,0.0,79,0.00,,,0.00,0.000000,,2013-01-23 14:53:00,
2013-01-23 08:02:00,15.0,10.0,-100.00,North,10,0.0,0.0,79,0.00,,,0.00,0.000000,,2013-01-23 15:02:00,
2013-01-23 08:33:00,18.0,13.0,-100.00,North,7,0.0,0.0,82,0.00,,,0.00,28.000000,,2013-01-23 15:33:00,
2013-01-23 08:43:00,18.0,13.0,-100.00,North,7,0.0,0.0,82,0.00,,,0.00,28.000000,,2013-01-23 15:43:00,
2013-01-23 08:53:00,18.0,13.0,-100.00,North,7,0.0,0.0,82,0.00,,,0.00,28.000000,,2013-01-23 15:53:00,
2013-01-23 09:02:00,18.0,13.0,-100.00,North,7,0.0,0.0,82,0.00,,,0.00,28.000000,,2013-01-23 16:02:00,
2013-01-23 09:33:00,29.0,19.0,-100.00,ENE,59,0.0,0.0,65,0.00,,,0.00,182.000000,,2013-01-23 16:33:00,
2013-01-23 09:43:00,29.0,19.0,-100.00,ENE,59,0.0,0.0,65,0.00,,,0.00,182.000000,,2013-01-23 16:43:00,
2013-01-23 09:53:00,29.0,19.0,-100.00,ENE,59,0.0,0.0,65,0.00,,,0.00,182.000000,,2013-01-23 16:53:00,
2013-01-23 10:02:00,29.0,19.0,-100.00,ENE,59,0.0,0.0,65,0.00,,,0.00,182.000000,,2013-01-23 17:02:00,
2013-01-23 10:34:00,38.0,20.0,-100.00,ENE,72,0.0,0.0,47,0.00,,,0.00,254.000000,,2013-01-23 17:34:00,
2013-01-23 10:43:00,38.0,20.0,-100.00,ENE,72,0.0,0.0,47,0.00,,,0.00,254.000000,,2013-01-23 17:43:00,
2013-01-23 10:53:00,38.0,20.0,-100.00,ENE,72,0.0,0.0,47,0.00,,,0.00,254.000000,,2013-01-23 17:53:00,
2013-01-23 11:03:00,38.0,20.0,-100.00,ENE,72,0.0,0.0,47,0.00,,,0.00,254.000000,,2013-01-23 18:03:00,
2013-01-23 11:33:00,49.0,12.0,-100.00,NE,51,0.0,0.0,22,0.00,,,0.00,339.000000,,2013-01-23 18:33:00,
2013-01-23 11:44:00,49.0,12.0,-100.00,NE,51,0.0,0.0,22,0.00,,,0.00,339.000000,,2013-01-23 18:44:00,
2013-01-23 11:53:00,49.0,12.0,-100.00,NE,51,0.0,0.0,22,0.00,,,0.00,339.000000,,2013-01-23 18:53:00,
2013-01-23 12:02:00,49.0,12.0,-100.00,NE,51,0.0,0.0,22,0.00,,,0.00,339.000000,,2013-01-23 19:02:00,
2013-01-23 12:33:00,59.0,14.0,-100.00,SSW,193,0.0,0.0,17,0.00,,,-99.99,526.000000,,2013-01-23 19:33:00,
2013-01-23 13:03:00,59.0,14.0,-100.00,SSW,193,0.0,0.0,17,0.00,,,-99.99,526.000000,,2013-01-23 20:03:00,
2013-01-23 14:34:00,53.0,17.0,-100.00,SW,214,5.0,10.0,24,-99.99,,,0.00,333.000000,,2013-01-23 21:34:00,
2013-01-23 14:43:00,53.0,17.0,-100.00,SW,214,5.0,10.0,24,-99.99,,,0.00,333.000000,,2013-01-23 21:43:00,
2013-01-23 14:53:00,53.0,17.0,-100.00,SW,214,5.0,10.0,24,-99.99,,,0.00,333.000000,,2013-01-23 21:53:00,
2013-01-23 15:02:00,53.0,17.0,-100.00,SW,214,5.0,10.0,24,-99.99,,,0.00,333.000000,,2013-01-23 22:02:00,
2013-01-23 15:33:00,53.0,19.0,-100.00,SW,232,2.0,9.0,26,0.00,,,0.00,286.000000,,2013-01-23 22:33:00,
2013-01-23 15:43:00,53.0,19.0,-100.00,SW,232,2.0,9.0,26,0.00,,,0.00,286.000000,,2013-01-23 22:43:00,
2013-01-23 15:53:00,53.0,19.0,-100.00,SW,232,2.0,9.0,26,0.00,,,0.00,286.000000,,2013-01-23 22:53:00,
2013-01-23 16:02:00,53.0,19.0,-100.00,SW,232,2.0,9.0,26,0.00,,,0.00,286.000000,,2013-01-23 23:02:00,
2013-01-23 16:33:00,51.0,19.0,-100.00,SW,224,2.0,10.0,28,0.00,,,0.00,177.000000,,2013-01-23 23:33:00,
2013-01-23 16:43:00,51.0,19.0,-100.00,SW,224,2.0,10.0,28,0.00,,,0.00,177.000000,,2013-01-23 23:43:00,
2013-01-23 16:53:00,51.0,19.0,-100.00,SW,224,2.0,10.0,28,0.00,,,0.00,177.000000,,2013-01-23 23:53:00,
2013-01-23 17:02:00,51.0,19.0,-100.00,SW,224,2.0,10.0,28,0.00,,,0.00,177.000000,,2013-01-24 00:02:00,
2013-01-23 17:33:00,52.0,21.0,-100.00,SSW,213,0.0,8.0,29,0.00,,,0.00,173.000000,,2013-01-24 00:33:00,
2013-01-23 17:43:00,52.0,21.0,-100.00,SSW,213,0.0,8.0,29,0.00,,,0.00,173.000000,,2013-01-24 00:43:00,
2013-01-23 17:53:00,52.0,21.0,-100.00,SSW,213,0.0,8.0,29,0.00,,,0.00,173.000000,,2013-01-24 00:53:00,
2013-01-23 18:02:00,52.0,21.0,-100.00,SSW,213,0.0,8.0,29,0.00,,,0.00,173.000000,,2013-01-24 01:02:00,
2013-01-23 18:33:00,42.0,20.0,-100.00,NNW,340,0.0,0.0,41,0.00,,,0.00,19.000000,,2013-01-24 01:33:00,
2013-01-23 18:43:00,42.0,20.0,-100.00,NNW,340,0.0,0.0,41,0.00,,,0.00,19.000000,,2013-01-24 01:43:00,
2013-01-23 18:52:00,42.0,20.0,-100.00,NNW,340,0.0,0.0,41,0.00,,,0.00,19.000000,,2013-01-24 01:52:00,
2013-01-23 19:02:00,42.0,20.0,-100.00,NNW,340,0.0,0.0,41,0.00,,,0.00,19.000000,,2013-01-24 02:02:00,
2013-01-23 19:33:00,37.0,21.0,-100.00,SSW,204,0.0,0.0,52,0.00,,,0.00,0.000000,,2013-01-24 02:33:00,
2013-01-23 19:42:00,37.0,21.0,-100.00,SSW,204,0.0,0.0,52,0.00,,,0.00,0.000000,,2013-01-24 02:42:00,
2013-01-23 19:52:00,37.0,21.0,-100.00,SSW,204,0.0,0.0,52,0.00,,,0.00,0.000000,,2013-01-24 02:52:00,
2013-01-23 20:02:00,37.0,21.0,-100.00,SSW,204,0.0,0.0,52,0.00,,,0.00,0.000000,,2013-01-24 03:02:00,
2013-01-23 20:33:00,35.0,22.0,-100.00,WNW,287,0.0,0.0,59,0.00,,,0.00,0.000000,,2013-01-24 03:33:00,
2013-01-23 20:43:00,35.0,22.0,-100.00,WNW,287,0.0,0.0,59,0.00,,,0.00,0.000000,,2013-01-24 03:43:00,
2013-01-23 20:52:00,35.0,22.0,-100.00,WNW,287,0.0,0.0,59,0.00,,,0.00,0.000000,,2013-01-24 03:52:00,
2013-01-23 21:02:00,35.0,22.0,-100.00,WNW,287,0.0,0.0,59,0.00,,,0.00,0.000000,,2013-01-24 04:02:00,
2013-01-23 21:33:00,34.0,23.0,-100.00,NE,34,0.0,0.0,65,0.00,,,0.00,0.000000,,2013-01-24 04:33:00,
2013-01-23 21:43:00,34.0,23.0,-100.00,NE,34,0.0,0.0,65,0.00,,,0.00,0.000000,,2013-01-24 04:43:00,
2013-01-23 21:53:00,34.0,23.0,-100.00,NE,34,0.0,0.0,65,0.00,,,0.00,0.000000,,2013-01-24 04:53:00,
2013-01-23 22:03:00,34.0,23.0,-100.00,NE,34,0.0,0.0,65,0.00,,,0.00,0.000000,,2013-01-24 05:03:00,
2013-01-23 22:33:00,33.0,23.0,-100.00,West,277,0.0,0.0,66,0.00,,,0.00,0.000000,,2013-01-24 05:33:00,
2013-01-23 22:43:00,33.0,23.0,-100.00,West,277,0.0,0.0,66,0.00,,,0.00,0.000000,,2013-01-24 05:43:00,
2013-01-23 22:53:00,33.0,23.0,-100.00,West,277,0.0,0.0,66,0.00,,,0.00,0.000000,,2013-01-24 05:53:00,
2013-01-23 23:02:00,33.0,23.0,-100.00,West,277,0.0,0.0,66,0.00,,,0.00,0.000000,,2013-01-24 06:02:00,
2013-01-23 23:33:00,33.0,24.0,-100.00,WNW,302,0.0,0.0,70,0.00,,,0.00,0.000000,,2013-01-24 06:33:00,
2013-01-23 23:42:00,33.0,24.0,-100.00,WNW,302,0.0,0.0,70,0.00,,,0.00,0.000000,,2013-01-24 06:42:00,
2013-01-23 23:52:00,33.0,24.0,-100.00,WNW,302,0.0,0.0,70,0.00,,,0.00,0.000000,,2013-01-24 06:52:00,